ANA94 RJBB-RJTT

Flight info

Callsign ANA94
Flight time 0h 48m
Altitude 25000
Route SOVRI UPRAL YAGYU SHTLE Y71 XAC
Aircraft B772/H-SDE2E3FGHIJ5LORVWXY/LB1D1

Departure

Time 2026-05-05 10:54
Airport Kansai International Airport (RJBB)

Arrival

Time 2026-05-05 11:42
Airport Tokyo Haneda International Airport (RJTT)
Time Latitude Longitude Altitude Speed Heading
2026-05-05 10:34 34.43168 135.24238 23 ft 0 kts 321°
2026-05-05 10:42 34.43159 135.24247 23 ft 4 kts 321°
2026-05-05 10:43 34.43139 135.24268 23 ft 4 kts 316°
2026-05-05 10:43 34.43123 135.24293 27 ft 4 kts 284°
2026-05-05 10:43 34.43124 135.24323 23 ft 4 kts 242°
2026-05-05 10:43 34.43129 135.24333 26 ft 0 kts 231°
2026-05-05 10:46 34.43107 135.24301 23 ft 11 kts 231°
2026-05-05 10:46 34.43036 135.24195 23 ft 21 kts 231°
2026-05-05 10:46 34.42931 135.24038 28 ft 25 kts 231°
2026-05-05 10:47 34.42827 135.23882 25 ft 20 kts 231°
2026-05-05 10:47 34.42779 135.23790 25 ft 12 kts 266°
2026-05-05 10:47 34.42831 135.23712 24 ft 14 kts 321°
2026-05-05 10:47 34.42937 135.23607 26 ft 22 kts 321°
2026-05-05 10:48 34.43023 135.23514 26 ft 13 kts 297°
2026-05-05 10:48 34.42991 135.23421 27 ft 12 kts 231°
2026-05-05 10:48 34.42990 135.23330 27 ft 12 kts 316°
2026-05-05 10:48 34.43066 135.23256 27 ft 18 kts 321°
2026-05-05 10:49 34.43186 135.23139 30 ft 25 kts 321°
2026-05-05 10:49 34.43336 135.22992 33 ft 30 kts 321°
2026-05-05 10:49 34.43496 135.22836 33 ft 30 kts 321°
2026-05-05 10:49 34.43654 135.22682 33 ft 28 kts 321°
2026-05-05 10:50 34.43779 135.22560 32 ft 20 kts 321°
2026-05-05 10:50 34.43878 135.22497 33 ft 13 kts 21°
2026-05-05 10:50 34.43942 135.22581 31 ft 17 kts 51°
2026-05-05 10:50 34.44044 135.22733 33 ft 29 kts 51°
2026-05-05 10:51 34.44179 135.22934 33 ft 30 kts 51°
2026-05-05 10:51 34.44310 135.23129 33 ft 30 kts 51°
2026-05-05 10:51 34.44442 135.23325 32 ft 30 kts 51°
2026-05-05 10:51 34.44572 135.23520 34 ft 28 kts 51°
2026-05-05 10:52 34.44671 135.23666 34 ft 13 kts 51°
2026-05-05 10:52 34.44745 135.23676 35 ft 12 kts 324°
2026-05-05 10:52 34.44806 135.23615 35 ft 11 kts 320°
2026-05-05 10:52 34.44826 135.23551 35 ft 8 kts 245°
2026-05-05 10:53 34.44816 135.23535 35 ft 1 kts 230°
2026-05-05 10:53 34.44749 135.23437 35 ft 39 kts 231°
2026-05-05 10:53 34.44389 135.22902 33 ft 125 kts 231°
2026-05-05 10:53 34.43711 135.21915 470 ft 160 kts 229°
2026-05-05 10:54 34.43052 135.20892 1779 ft 149 kts 231°
2026-05-05 10:54 34.42508 135.19762 2308 ft 170 kts 254°
2026-05-05 10:54 34.42715 135.18225 2523 ft 209 kts 297°
2026-05-05 10:54 34.43864 135.17034 2878 ft 230 kts 340°
2026-05-05 10:55 34.45445 135.16934 3459 ft 231 kts 22°
2026-05-05 10:55 34.46667 135.18029 4152 ft 222 kts 63°
2026-05-05 10:55 34.46995 135.19786 4799 ft 216 kts 102°
2026-05-05 10:55 34.46406 135.21430 5036 ft 216 kts 123°
2026-05-05 10:56 34.45644 135.23034 5146 ft 221 kts 120°
2026-05-05 10:56 34.44927 135.24686 5819 ft 221 kts 119°
2026-05-05 10:56 34.44291 135.26387 6509 ft 223 kts 114°
2026-05-05 10:56 34.43708 135.28141 7135 ft 225 kts 109°
2026-05-05 10:57 34.43614 135.30052 7517 ft 236 kts 82°
2026-05-05 10:57 34.43920 135.32076 7713 ft 260 kts 81°
2026-05-05 10:57 34.44289 135.34305 8148 ft 276 kts 79°
2026-05-05 10:57 34.44689 135.36625 8810 ft 285 kts 79°
2026-05-05 10:58 34.45099 135.39001 9573 ft 291 kts 78°
2026-05-05 10:58 34.45509 135.41419 10358 ft 297 kts 79°
2026-05-05 10:58 34.45939 135.43966 10685 ft 323 kts 79°
2026-05-05 10:58 34.46405 135.46758 10918 ft 353 kts 79°
2026-05-05 10:59 34.46905 135.49781 11387 ft 375 kts 79°
2026-05-05 10:59 34.47425 135.52928 12294 ft 385 kts 80°
2026-05-05 10:59 34.47954 135.56139 13400 ft 392 kts 79°
2026-05-05 10:59 34.48483 135.59354 14442 ft 398 kts 79°
2026-05-05 11:00 34.49028 135.62673 15384 ft 406 kts 79°
2026-05-05 11:00 34.49581 135.66060 16273 ft 414 kts 79°
2026-05-05 11:00 34.50146 135.69513 17165 ft 421 kts 79°
2026-05-05 11:00 34.50716 135.73017 18066 ft 426 kts 79°
2026-05-05 11:01 34.51291 135.76569 18931 ft 432 kts 79°
2026-05-05 11:01 34.51875 135.80185 19598 ft 442 kts 79°
2026-05-05 11:01 34.52471 135.83886 20248 ft 452 kts 79°
2026-05-05 11:01 34.53069 135.87603 20915 ft 459 kts 79°
2026-05-05 11:02 34.53683 135.91424 21632 ft 466 kts 79°
2026-05-05 11:02 34.54307 135.95309 22303 ft 472 kts 79°
2026-05-05 11:02 34.55098 135.99199 22910 ft 479 kts 73°
2026-05-05 11:02 34.56166 136.03052 23554 ft 485 kts 69°
2026-05-05 11:03 34.57373 136.06905 24177 ft 492 kts 68°
2026-05-05 11:03 34.58623 136.10799 24793 ft 499 kts 68°
2026-05-05 11:03 34.59861 136.14722 25221 ft 501 kts 69°
2026-05-05 11:03 34.61097 136.18758 25207 ft 520 kts 70°
2026-05-05 11:04 34.62330 136.22894 25208 ft 536 kts 70°
2026-05-05 11:04 34.63586 136.27180 25189 ft 540 kts 70°
2026-05-05 11:04 34.64833 136.31478 25205 ft 540 kts 70°
2026-05-05 11:04 34.66079 136.35783 25198 ft 539 kts 70°
2026-05-05 11:05 34.67324 136.40079 25204 ft 539 kts 70°
2026-05-05 11:05 34.68568 136.44361 25208 ft 538 kts 70°
2026-05-05 11:05 34.69811 136.48647 25215 ft 537 kts 70°
2026-05-05 11:05 34.71050 136.52930 25222 ft 537 kts 70°
2026-05-05 11:06 34.72271 136.57158 25223 ft 537 kts 70°
2026-05-05 11:06 34.73505 136.61434 25228 ft 537 kts 70°
2026-05-05 11:06 34.74741 136.65722 25230 ft 537 kts 70°
2026-05-05 11:06 34.75978 136.70015 25234 ft 537 kts 70°
2026-05-05 11:07 34.77210 136.74302 25235 ft 537 kts 70°
2026-05-05 11:07 34.78440 136.78591 25241 ft 537 kts 70°
2026-05-05 11:07 34.79668 136.82877 25239 ft 537 kts 70°
2026-05-05 11:07 34.80895 136.87167 25242 ft 537 kts 70°
2026-05-05 11:08 34.82115 136.91455 25237 ft 532 kts 71°
2026-05-05 11:08 34.82931 136.95782 25230 ft 534 kts 85°
2026-05-05 11:08 34.82773 137.00252 25241 ft 524 kts 102°
2026-05-05 11:08 34.82141 137.04657 25251 ft 533 kts 102°
2026-05-05 11:09 34.81536 137.09116 25248 ft 533 kts 101°
2026-05-05 11:09 34.80985 137.13573 25241 ft 533 kts 101°
2026-05-05 11:09 34.80470 137.18037 25233 ft 533 kts 100°
2026-05-05 11:09 34.79972 137.22507 25226 ft 533 kts 100°
2026-05-05 11:10 34.79480 137.26967 25227 ft 532 kts 100°
2026-05-05 11:10 34.78991 137.31377 25232 ft 533 kts 100°
2026-05-05 11:10 34.78490 137.35844 25233 ft 533 kts 100°
2026-05-05 11:10 34.77983 137.40314 25229 ft 534 kts 100°
2026-05-05 11:11 34.77474 137.44777 25235 ft 534 kts 101°
2026-05-05 11:11 34.76958 137.49262 25230 ft 534 kts 101°
2026-05-05 11:11 34.76444 137.53733 25234 ft 535 kts 101°
2026-05-05 11:11 34.75926 137.58215 25228 ft 536 kts 101°
2026-05-05 11:12 34.75408 137.62704 25230 ft 536 kts 101°
2026-05-05 11:12 34.74887 137.67198 25236 ft 537 kts 101°
2026-05-05 11:12 34.74390 137.71700 25238 ft 537 kts 99°
2026-05-05 11:12 34.73958 137.76204 25237 ft 538 kts 99°
2026-05-05 11:13 34.73559 137.80660 25242 ft 538 kts 98°
2026-05-05 11:13 34.73153 137.85187 25242 ft 539 kts 99°
2026-05-05 11:13 34.72731 137.89711 25240 ft 539 kts 99°
2026-05-05 11:13 34.72295 137.94241 25240 ft 540 kts 99°
2026-05-05 11:14 34.71855 137.98775 25241 ft 540 kts 99°
2026-05-05 11:14 34.71459 138.03299 25237 ft 540 kts 97°
2026-05-05 11:14 34.71345 138.07876 25231 ft 542 kts 91°
2026-05-05 11:14 34.71388 138.12405 25241 ft 544 kts 91°
2026-05-05 11:15 34.71442 138.16999 25241 ft 544 kts 91°
2026-05-05 11:15 34.71489 138.21602 25244 ft 545 kts 91°
2026-05-05 11:15 34.71522 138.26205 25239 ft 544 kts 91°
2026-05-05 11:15 34.71543 138.30803 25238 ft 544 kts 91°
2026-05-05 11:16 34.71554 138.35398 25237 ft 544 kts 91°
2026-05-05 11:16 34.71559 138.39980 25242 ft 543 kts 91°
2026-05-05 11:16 34.71563 138.44574 25240 ft 543 kts 91°
2026-05-05 11:16 34.71567 138.49107 25238 ft 544 kts 91°
2026-05-05 11:17 34.71573 138.53705 25241 ft 544 kts 91°
2026-05-05 11:17 34.71575 138.58303 25235 ft 544 kts 92°
2026-05-05 11:17 34.71572 138.62892 25233 ft 544 kts 91°
2026-05-05 11:17 34.71569 138.67487 25225 ft 543 kts 91°
2026-05-05 11:18 34.71565 138.72075 25228 ft 543 kts 91°
2026-05-05 11:18 34.71561 138.76666 25230 ft 543 kts 92°
2026-05-05 11:18 34.71555 138.81231 25212 ft 534 kts 92°
2026-05-05 11:18 34.71546 138.85704 24686 ft 527 kts 92°
2026-05-05 11:19 34.71523 138.90141 23938 ft 521 kts 91°
2026-05-05 11:19 34.71509 138.94452 23183 ft 514 kts 91°
2026-05-05 11:19 34.71488 138.98775 22451 ft 507 kts 91°
2026-05-05 11:19 34.71471 139.03016 21905 ft 495 kts 91°
2026-05-05 11:20 34.71453 139.07110 21322 ft 472 kts 91°
2026-05-05 11:20 34.71431 139.11107 20845 ft 475 kts 91°
2026-05-05 11:20 34.71406 139.15093 20344 ft 467 kts 91°
2026-05-05 11:20 34.71381 139.19000 19856 ft 458 kts 91°
2026-05-05 11:21 34.71358 139.22824 19378 ft 448 kts 90°
2026-05-05 11:21 34.71334 139.26528 18925 ft 439 kts 90°
2026-05-05 11:21 34.71309 139.30207 18473 ft 432 kts 90°
2026-05-05 11:21 34.71283 139.33826 18013 ft 426 kts 90°
2026-05-05 11:22 34.71284 139.37394 17592 ft 418 kts 87°
2026-05-05 11:22 34.71684 139.40881 17162 ft 416 kts 75°
2026-05-05 11:22 34.72557 139.44217 16734 ft 415 kts 67°
2026-05-05 11:22 34.73836 139.47345 16310 ft 413 kts 58°
2026-05-05 11:23 34.75267 139.50363 15876 ft 411 kts 58°
2026-05-05 11:23 34.76683 139.53371 15445 ft 409 kts 59°
2026-05-05 11:23 34.78059 139.56332 15030 ft 406 kts 59°
2026-05-05 11:23 34.79433 139.59322 14605 ft 404 kts 59°
2026-05-05 11:24 34.80798 139.62308 14043 ft 403 kts 59°
2026-05-05 11:24 34.82150 139.65273 13555 ft 396 kts 59°
2026-05-05 11:24 34.83665 139.67974 13137 ft 383 kts 45°
2026-05-05 11:24 34.85708 139.69991 12994 ft 375 kts 30°
2026-05-05 11:25 34.88057 139.71357 12988 ft 377 kts 17°
2026-05-05 11:25 34.90574 139.72315 12990 ft 381 kts 15°
2026-05-05 11:25 34.93103 139.73293 12983 ft 381 kts 16°
2026-05-05 11:25 34.95585 139.74294 12979 ft 380 kts 18°
2026-05-05 11:26 34.97987 139.75622 12985 ft 381 kts 28°
2026-05-05 11:26 35.00185 139.77432 12991 ft 382 kts 36°
2026-05-05 11:26 35.02149 139.79619 12994 ft 383 kts 43°
2026-05-05 11:26 35.04030 139.81923 12994 ft 384 kts 43°
2026-05-05 11:27 35.05923 139.84227 12995 ft 385 kts 43°
2026-05-05 11:27 35.07828 139.86517 12991 ft 385 kts 43°
2026-05-05 11:27 35.09749 139.88812 12991 ft 386 kts 43°
2026-05-05 11:27 35.11676 139.91112 12869 ft 389 kts 43°
2026-05-05 11:28 35.13616 139.93429 12445 ft 390 kts 43°
2026-05-05 11:28 35.15536 139.95724 12070 ft 383 kts 43°
2026-05-05 11:28 35.17395 139.97951 11704 ft 376 kts 43°
2026-05-05 11:28 35.19209 140.00128 11343 ft 351 kts 43°
2026-05-05 11:29 35.20886 140.02143 11032 ft 326 kts 43°
2026-05-05 11:29 35.22447 140.04017 10739 ft 303 kts 43°
2026-05-05 11:29 35.23920 140.05784 10481 ft 294 kts 43°
2026-05-05 11:29 35.25369 140.07522 10215 ft 290 kts 43°
2026-05-05 11:30 35.26798 140.09237 9953 ft 286 kts 43°
2026-05-05 11:30 35.28208 140.10931 9691 ft 283 kts 43°
2026-05-05 11:30 35.29584 140.12585 9432 ft 279 kts 43°
2026-05-05 11:30 35.30965 140.14246 9175 ft 277 kts 43°
2026-05-05 11:31 35.32331 140.15890 8927 ft 274 kts 43°
2026-05-05 11:31 35.33683 140.17518 8674 ft 272 kts 43°
2026-05-05 11:31 35.35033 140.19143 8427 ft 271 kts 43°
2026-05-05 11:31 35.36379 140.20749 8164 ft 267 kts 40°
2026-05-05 11:32 35.37986 140.21793 7975 ft 263 kts
2026-05-05 11:32 35.39794 140.21836 7876 ft 267 kts 354°
2026-05-05 11:32 35.41665 140.21623 7755 ft 272 kts 354°
2026-05-05 11:32 35.43553 140.21423 7629 ft 273 kts 354°
2026-05-05 11:33 35.45440 140.21224 7492 ft 272 kts 354°
2026-05-05 11:33 35.47330 140.21026 7379 ft 272 kts 354°
2026-05-05 11:33 35.49210 140.20830 7255 ft 271 kts 354°
2026-05-05 11:33 35.51082 140.20635 7131 ft 270 kts 354°
2026-05-05 11:34 35.52938 140.20444 7049 ft 262 kts 354°
2026-05-05 11:34 35.54707 140.20043 6725 ft 259 kts 344°
2026-05-05 11:34 35.56417 140.19430 6408 ft 261 kts 342°
2026-05-05 11:34 35.58083 140.18637 6054 ft 253 kts 324°
2026-05-05 11:35 35.59266 140.17106 5883 ft 244 kts 301°
2026-05-05 11:35 35.60092 140.15338 5675 ft 236 kts 298°
2026-05-05 11:35 35.60676 140.13526 5465 ft 226 kts 274°
2026-05-05 11:35 35.60631 140.11638 5336 ft 220 kts 266°
2026-05-05 11:36 35.60585 140.09766 5166 ft 217 kts 268°
2026-05-05 11:36 35.60563 140.07937 4961 ft 212 kts 268°
2026-05-05 11:36 35.60544 140.06150 4685 ft 211 kts 268°
2026-05-05 11:36 35.60529 140.04355 4427 ft 210 kts 267°
2026-05-05 11:37 35.60515 140.02563 4155 ft 210 kts 267°
2026-05-05 11:37 35.60504 140.00770 3879 ft 210 kts 267°
2026-05-05 11:37 35.60494 139.98982 3626 ft 209 kts 266°
2026-05-05 11:37 35.60483 139.97213 3366 ft 208 kts 266°
2026-05-05 11:38 35.60471 139.95444 3097 ft 203 kts 266°
2026-05-05 11:38 35.60461 139.93768 2786 ft 189 kts 265°
2026-05-05 11:38 35.60455 139.92218 2550 ft 173 kts 265°
2026-05-05 11:38 35.60447 139.90800 2318 ft 160 kts 264°
2026-05-05 11:39 35.60438 139.89465 2105 ft 158 kts 264°
2026-05-05 11:39 35.60428 139.88122 1906 ft 157 kts 264°
2026-05-05 11:39 35.60418 139.86797 1703 ft 153 kts 264°
2026-05-05 11:39 35.60411 139.85538 1504 ft 142 kts 264°
2026-05-05 11:40 35.60403 139.84336 1333 ft 140 kts 264°
2026-05-05 11:40 35.60395 139.83148 1206 ft 139 kts 263°
2026-05-05 11:40 35.60297 139.81967 1063 ft 138 kts 252°
2026-05-05 11:40 35.59982 139.80875 899 ft 134 kts 237°
2026-05-05 11:41 35.59402 139.80001 716 ft 131 kts 216°
2026-05-05 11:41 35.58664 139.79400 522 ft 127 kts 212°
2026-05-05 11:41 35.57944 139.78740 371 ft 130 kts 212°
2026-05-05 11:41 35.57202 139.78097 207 ft 131 kts 212°
2026-05-05 11:42 35.56452 139.77457 47 ft 129 kts 213°
2026-05-05 11:42 35.55816 139.76911 32 ft 90 kts 215°
2026-05-05 11:42 35.55449 139.76597 30 ft 38 kts 215°
2026-05-05 11:42 35.55272 139.76485 29 ft 18 kts 196°
2026-05-05 11:43 35.55190 139.76463 29 ft 10 kts 190°
2026-05-05 11:43 35.55130 139.76451 29 ft 9 kts 188°
2026-05-05 11:43 35.55079 139.76476 29 ft 8 kts 129°
2026-05-05 11:43 35.55074 139.76540 29 ft 8 kts 66°
2026-05-05 11:44 35.55117 139.76582 29 ft 9 kts 33°
2026-05-05 11:44 35.55186 139.76641 28 ft 15 kts 35°
2026-05-05 11:44 35.55290 139.76730 27 ft 20 kts 35°
2026-05-05 11:44 35.55416 139.76839 29 ft 24 kts 35°
2026-05-05 11:45 35.55563 139.76966 28 ft 28 kts 35°
2026-05-05 11:45 35.55731 139.77109 30 ft 30 kts 35°
2026-05-05 11:45 35.55887 139.77243 29 ft 16 kts 35°
2026-05-05 11:45 35.55955 139.77350 28 ft 17 kts 60°
2026-05-05 11:46 35.56033 139.77516 28 ft 27 kts 60°
2026-05-05 11:46 35.56139 139.77740 29 ft 33 kts 59°
2026-05-05 11:46 35.56252 139.77977 30 ft 31 kts 59°
2026-05-05 11:46 35.56357 139.78200 30 ft 30 kts 59°
2026-05-05 11:47 35.56422 139.78338 28 ft 11 kts 65°
2026-05-05 11:47 35.56389 139.78413 29 ft 11 kts 148°
2026-05-05 11:47 35.56305 139.78474 28 ft 19 kts 150°
2026-05-05 11:47 35.56168 139.78571 28 ft 27 kts 150°
2026-05-05 11:48 35.55786 139.78842 28 ft 33 kts 150°
2026-05-05 11:48 35.55608 139.78969 30 ft 28 kts 150°
2026-05-05 11:48 35.55496 139.79047 30 ft 13 kts 155°
2026-05-05 11:49 35.55426 139.78992 31 ft 13 kts 240°
2026-05-05 11:49 35.55364 139.78925 32 ft 13 kts 179°
2026-05-05 11:49 35.55314 139.78953 32 ft 12 kts 149°
2026-05-05 11:49 35.55244 139.78973 31 ft 7 kts 219°
2026-05-05 11:50 35.55227 139.78944 30 ft 2 kts 240°
2026-05-05 11:50 35.55218 139.78924 30 ft 1 kts 240°
2026-05-05 11:50 35.55215 139.78918 32 ft 0 kts 240°
2026-05-05 11:50 35.55214 139.78917 31 ft 0 kts 240°